STARLINK-3915 (52581 NORAD) Tracking and Keplerian Element Data

This shows tracking and keplerian element data for the satellite.

Feedback or suggestion? Click here.




ElementValue
Catalog52581
NameSTARLINK-3915
Epoch Orbit130
Epoch Day167.08334491
Epoch Year2022
RAAN128.9773
Inclination53.2171
Eccentricity0.0002472
Argument of Perigee20.8911
Mean Anonmoly55.5381
Mean Motion15.73283625
Decay Rate-0.00089271
L11 52581U 22051AX 22167.08334491 -.00089271 00000+0 -63599-3 0 9994
L22 52581 53.2171 128.9773 0002472 20.8911 55.5381 15.73283625 1308

Live tracking and technical data element details for STARLINK-3915 (NORAD 52581). STARLINK-3915 can be tracked NOW for your location showing map with azimuth and elevation plus other details from your city location.

Track the satellite on the map from your city or location and see movement details for azimuth, elevation, latitude, longitude, range, height, and movement on the map or in text.







IsCatalogInMostPopularTable: catalog: 52581, numindb: 3
Update: records affected: 1



GetName: 52581 STARLINK-3915

Hit Count: updated at: Mon, 27 Jun 2022 06:22:27 GMT